Weather History for Evansville, IN

Change the Weather History Date:

Saturday, October 19, 2013

  Actual Average Record
Temperature  
Mean Temperature 50 °F 57 °F  
Max Temperature 57 °F 69 °F 88 °F (2005)
Min Temperature 42 °F 45 °F 26 °F (1972)
Degree Days  
Heating Degree Days 15 9  
Month to date heating degree days 72 129  
Since 1 July heating degree days 82 176  
Cooling Degree Days 0 1  
Month to date cooling degree days 55 26  
Year to date cooling degree days 1462 1392  
Moisture  
Dew Point 42 °F    
Average Humidity 68    
Maximum Humidity 93    
Minimum Humidity 43    
Precipitation  
Precipitation 0.19 in 0.11 in 1.56 in (1905)
Month to date precipitation 4.83 1.94  
Year to date precipitation 42.97 35.91  
Snow  
Snow 0.00 in 0.10 in 0.90 in (1989)
Month to date snowfall 0.0 0.1  
Since 1 July snowfall 0.0 0.1  
Since 1 September snowfall 0.0 0.1  
Snow Depth 0.00 in    
Sea Level Pressure  
Sea Level Pressure 29.98 in    
Wind  
Wind Speed 6 mph (WNW)    
Max Wind Speed 20 mph    
Max Gust Speed 25 mph    
Visibility 9 miles    
Events Rain    
T = Trace of Precipitation, MM = Missing Value Source: NWS Daily Summary

Daily Weather History Graph

Daily Weather History Graph

Search for Another Location

Airport:

Trip Planner

Search our weather history database for the weather conditions in past years. The results will help you decide how hot, cold, wet, or windy it might be!

Date:

Astronomy

Oct. 19, 2013 Rise Set
Actual Time 7:02 AM CDT 6:06 PM CDT
Civil Twilight 6:36 AM CDT 6:33 PM CDT
Nautical Twilight 6:05 AM CDT 7:03 PM CDT
Astronomical Twilight 5:34 AM CDT 7:34 PM CDT
Moon 6:35 PM CDT (10/19) 7:39 AM CDT (10/19)
Length of Visible Light 11h 57m
Length of Day
11h 03m
Waxing Gibbous, 99% of the Moon is Illuminated
Oct 19
Waxing Gibbous
Oct 26
Last Quarter
Nov 3
New
Nov 9
First Quarter
Nov 17
Full

Hourly Weather History & Observations

Time (CDT) Temp. Windchill Dew Point Humidity Pressure Visibility Wind Dir Wind Speed Gust Speed Precip Events Conditions
12:54 AM 53.1 °F - 43.0 °F 69% 29.97 in 10.0 mi Calm Calm - N/A   Mostly Cloudy
1:54 AM 52.0 °F - 46.0 °F 80% 29.95 in 10.0 mi Calm Calm - 0.01 in Rain Light Rain
2:54 AM 51.1 °F - 46.9 °F 86% 29.93 in 10.0 mi Calm Calm - 0.01 in Rain Light Rain
3:54 AM 50.0 °F - 46.9 °F 89% 29.92 in 6.0 mi NW 3.5 mph - 0.01 in Rain Rain
4:54 AM 50.0 °F - 45.0 °F 83% 29.92 in 6.0 mi NNW 9.2 mph 25.3 mph 0.04 in Rain Rain
5:54 AM 48.9 °F - 46.0 °F 90% 29.91 in 8.0 mi NNW 6.9 mph - 0.03 in Rain Light Rain
6:01 AM 48.2 °F - 46.4 °F 93% 29.92 in 8.0 mi NW 6.9 mph - 0.00 in Rain Light Rain
6:16 AM 48.2 °F - 46.4 °F 93% 29.93 in 7.0 mi NW 8.1 mph - 0.01 in Rain Light Rain
6:49 AM 48.2 °F - 44.6 °F 87% 29.93 in 8.0 mi NW 8.1 mph 17.3 mph 0.02 in Rain Light Rain
6:54 AM 48.0 °F - 45.0 °F 89% 29.93 in 9.0 mi NW 9.2 mph - 0.02 in Rain Light Rain
7:54 AM 46.9 °F - 44.1 °F 90% 29.97 in 4.0 mi NW 8.1 mph - 0.03 in Rain Rain
8:09 AM 46.4 °F 41.9 °F 44.6 °F 93% 29.96 in 6.0 mi NW 9.2 mph - 0.02 in Rain Rain
8:54 AM 46.9 °F - 44.1 °F 90% 29.98 in 10.0 mi WNW 10.4 mph - 0.04 in   Mostly Cloudy
9:05 AM 46.4 °F 41.9 °F 44.6 °F 93% 29.98 in 10.0 mi WNW 9.2 mph - N/A   Overcast
9:23 AM 46.4 °F 41.9 °F 42.8 °F 87% 29.98 in 10.0 mi NW 9.2 mph - N/A   Overcast
9:54 AM 48.0 °F - 43.0 °F 83% 29.99 in 10.0 mi WNW 10.4 mph - N/A   Overcast
10:54 AM 48.9 °F - 42.1 °F 77% 30.00 in 10.0 mi NW 12.7 mph - N/A   Overcast
11:54 AM 51.1 °F - 42.1 °F 71% 30.01 in 10.0 mi West 8.1 mph - N/A   Mostly Cloudy
12:44 PM 51.8 °F - 39.2 °F 62% 30.00 in 10.0 mi WNW 10.4 mph - N/A   Mostly Cloudy
12:54 PM 51.1 °F - 41.0 °F 68% 30.01 in 10.0 mi NW 10.4 mph - N/A   Mostly Cloudy
1:13 PM 51.8 °F - 39.2 °F 62% 30.00 in 10.0 mi NW 10.4 mph - N/A   Mostly Cloudy
1:54 PM 54.0 °F - 37.9 °F 55% 30.00 in 10.0 mi West 12.7 mph 20.7 mph N/A   Mostly Cloudy
2:54 PM 54.0 °F - 37.0 °F 53% 30.00 in 10.0 mi WNW 8.1 mph - N/A   Clear
3:54 PM 55.9 °F - 35.1 °F 45% 29.99 in 10.0 mi West 6.9 mph - N/A   Partly Cloudy
4:54 PM 55.9 °F - 34.0 °F 44% 30.00 in 10.0 mi West 10.4 mph - N/A   Clear
5:54 PM 52.0 °F - 35.1 °F 53% 30.00 in 10.0 mi WSW 4.6 mph - N/A   Clear
6:54 PM 46.9 °F - 37.0 °F 68% 30.01 in 10.0 mi Calm Calm - N/A   Clear
7:54 PM 45.0 °F - 37.9 °F 76% 30.03 in 10.0 mi Calm Calm - N/A   Clear
8:54 PM 44.1 °F - 37.9 °F 79% 30.04 in 10.0 mi Calm Calm - N/A   Clear
9:54 PM 43.0 °F - 37.9 °F 82% 30.05 in 10.0 mi Calm Calm - N/A   Clear
10:54 PM 43.0 °F - 37.9 °F 82% 30.05 in 10.0 mi Calm Calm - N/A   Clear
11:54 PM 44.1 °F - 37.9 °F 79% 30.05 in 10.0 mi Calm Calm - N/A   Clear